Weather Roundup
Issued by NWS

Home | Current Version | Previous Version | Graphics & Text | Print | Product List | Glossary Off
Versions: 1 2 3 4 5 6 7 8 9 10 11 12 13 14 15 16 17 18 19 20 21 22 23 24 25 26 27 28 29 30 31 32 33 34 35 36 37 38 39 40 41 42 43 44 45 46 47 48 49 50

082
NZUS93 KARX 050210
HRRWXR

CURRENT HOURLY OBSERVATIONS ACROSS
MUCH OF THE UPPER MISSISSIPPI VALLEY
NATIONAL WEATHER SERVICE LA CROSSE WI
800 PM CST THU FEB 04 2016


...SOUTHEAST MINNESOTA...


CITY           SKY/WX    TMP DP  RH WIND       PRES   REMARKS
ROCHESTER      CLOUDY    22  18  85 NW8       30.18R WCI  12
ROCHESTER/MAYO MOCLDY    24  19  81 NW7       30.19R WCI  16
WINONA         CLOUDY    25  21  86 CALM      30.21R
AUSTIN         CLOUDY    21  16  79 NW10      30.20R WCI  10
ALBERT LEA     CLEAR     16  12  86 W5        30.22R WCI   9
DODGE CENTER   CLOUDY    23  18  80 NW9       30.18S WCI  13
PRESTON        CLOUDY    23  18  83 NW13      30.18R WCI  11
OWATONNA       CLEAR     16  10  79 W7        30.22R WCI   6
FARIBAULT        N/A     16  10  79 W7        30.22R WCI   6
$$

...ELSEWHERE IN MINNESOTA...


CITY           SKY/WX    TMP DP  RH WIND       PRES   REMARKS
MINNEAPOLIS    CLEAR     19  12  74 W9        30.22R WCI   8
INTNL FALLS    CLOUDY     3   0  87 CALM      30.14R
DULUTH         PTCLDY    15   8  73 NW8       30.12R WCI   4
RED WING       CLOUDY    25  18  74 CALM      30.20S
REDWOOD FALLS  MOCLDY    17  13  84 NW3       30.24S
MANKATO        CLEAR     16   9  73 NW9       30.23S WCI   4
WORTHINGTON    CLOUDY     9   3  78 W7        30.24R WCI  -3
FAIRMONT       CLEAR     16   9  73 NW9       30.23R WCI   4
$$

...SOUTHWEST WISCONSIN...


CITY           SKY/WX    TMP DP  RH WIND       PRES   REMARKS
LA CROSSE      FLURRIES  24  19  81 CALM      30.20R
PRAIRIE DU CHI FLURRIES  26  22  84 W5        30.21S WCI  21
BOSCOBEL       LGT SNOW  25  25 100 SW3       30.21S FOG
LONE ROCK      LGT SNOW  25  21  85 CALM      30.20S FOG
PLATTEVILLE    CLOUDY    27  26  96 CALM      30.18S
FORT MC COY    CLOUDY    23  22  95 CALM      30.20R
CAMP DOUGLAS   FLURRIES  23  23 100 SW3       30.17S
VIROQUA        CLOUDY    23  22  96 W6        30.16S WCI  15
WIS DELLS      CLOUDY    25  18  76 CALM      30.17S
$$

...ELSEWHERE IN WISCONSIN...


CITY           SKY/WX    TMP DP  RH WIND       PRES   REMARKS
MILWAUKEE      MOCLDY    28  18  66 SW8       30.22S WCI  20
MADISON        CLOUDY    28  20  71 SW3       30.19S
GREEN BAY      CLEAR     17   9  70 S5        30.19S WCI  10
EAU CLAIRE     CLOUDY    22  17  81 NW5       30.18R WCI  16
BLACK RVR FLS  LGT SNOW  24  20  85 CALM      30.18S
MEDFORD        LGT SNOW  18  17  95 W3        30.12S
WAUSAU         CLOUDY    22  14  71 SW5       30.12S WCI  16
WIS RAPIDS     FLURRIES  20  15  81 SW3       30.18R
MARSHFIELD     LGT SNOW  22  17  81 W7        30.13S WCI  13
RICE LAKE      CLOUDY    22  17  81 W3        30.17S
$$

...NORTHEAST IOWA...


CITY           SKY/WX    TMP DP  RH WIND       PRES   REMARKS
WATERLOO       CLOUDY    26  21  81 NW9       30.22R WCI  17
DUBUQUE        CLOUDY    27  24  89 CALM      30.18S
DECORAH        CLOUDY    23  23 100 VRB5      30.17S WCI  17
MASON CITY     CLEAR     16  12  84 NW13      30.24R WCI   2
CHARLES CITY   CLOUDY    25  23  93 NW14      30.21R WCI  13
OELWEIN        FLURRIES  25  25 100 W9        30.20S WCI  15
$$

...ELSEWHERE IN IOWA...


CITY           SKY/WX    TMP DP  RH WIND       PRES   REMARKS
DES MOINES     PTCLDY    27  19  72 NW16      30.28R WCI  15
IOWA CITY      MOCLDY    30  23  75 W13       30.24R WCI  20
FORT DODGE     CLEAR     16   9  73 CALM      30.27R
MARSHALLTOWN   CLOUDY    25  20  81 NW15      30.24R WCI  13
CEDAR RAPIDS   CLOUDY    26  23  88 W13       30.21S WCI  15
$$

...NORTHERN ILLINOIS...


CITY           SKY/WX    TMP DP  RH WIND       PRES   REMARKS
CHICAGO-OHARE  MOCLDY    29  19  66 S8        30.24S WCI  21
CHICAGO-MIDWAY MOCLDY    30  17  58 S7        30.26S WCI  23
MOLINE         PTCLDY    31  22  69 S7        30.21S WCI  24
ROCKFORD       PTCLDY    30  22  72 SW6       30.24S WCI  24
PEORIA         PTCLDY    29  20  69 S7        30.27S WCI  22
$$

NOTE: "FAIR" INDICATES FEW OR NO CLOUDS BELOW 12,000 FEET WITH NO
SIGNIFICANT WEATHER AND/OR OBSTRUCTIONS TO VISIBILITY. WIND
SPEEDS ARE IN MILES-PER-HOUR.




USA.gov is the U.S. government's official web portal to all federal, state and local government web resources and services.